Time,TemperatureF,DewpointF,PressureIn,WindDirection,WindDirectionDegrees,WindSpeedMPH,WindSpeedGustMPH,Humidity,HourlyPrecipIn,Conditions,Clouds,dailyrainin,SoftwareType,DateUTC
2013-08-27 00:00:00,76.7,71.9,29.82,WNW,285,0.0,1.0,85,0.00,,---,0.00,VWS V14.00,2013-08-27 05:00:00,
2013-08-27 00:02:00,76.6,71.8,29.82,WNW,284,0.0,1.0,85,0.00,,---,0.00,VWS V14.00,2013-08-27 05:02:00,
2013-08-27 00:05:00,76.6,72.1,29.82,WNW,285,0.0,1.0,86,0.00,,---,0.00,VWS V14.00,2013-08-27 05:05:00,
2013-08-27 00:07:00,76.5,72.0,29.82,WNW,285,0.0,1.0,86,0.00,,---,0.00,VWS V14.00,2013-08-27 05:07:00,
2013-08-27 00:10:00,76.5,72.0,29.82,WNW,284,0.0,1.0,86,0.00,,---,0.00,VWS V14.00,2013-08-27 05:10:00,
2013-08-27 00:12:00,76.4,71.9,29.82,WNW,284,0.0,1.0,86,0.00,,---,0.00,VWS V14.00,2013-08-27 05:12:00,
2013-08-27 00:15:00,76.4,71.9,29.82,WNW,285,0.0,1.0,86,0.00,,---,0.00,VWS V14.00,2013-08-27 05:15:00,
2013-08-27 00:17:00,76.3,71.8,29.82,WNW,285,0.0,0.0,86,0.00,,---,0.00,VWS V14.00,2013-08-27 05:17:00,
2013-08-27 00:20:00,76.3,71.8,29.82,WNW,285,0.0,0.0,86,0.00,,---,0.00,VWS V14.00,2013-08-27 05:20:00,
2013-08-27 00:22:00,76.2,71.7,29.82,WNW,284,0.0,0.0,86,0.00,,---,0.00,VWS V14.00,2013-08-27 05:22:00,
2013-08-27 00:25:00,76.2,72.1,29.82,WNW,285,0.0,0.0,87,0.00,,---,0.00,VWS V14.00,2013-08-27 05:25:00,
2013-08-27 00:27:00,76.2,72.1,29.82,WNW,285,0.0,0.0,87,0.00,,---,0.00,VWS V14.00,2013-08-27 05:27:00,
2013-08-27 00:30:00,76.2,72.1,29.82,WNW,284,0.0,0.0,87,0.00,,---,0.00,VWS V14.00,2013-08-27 05:30:00,
2013-08-27 00:32:00,76.2,71.7,29.82,WNW,284,0.0,0.0,86,0.00,,---,0.00,VWS V14.00,2013-08-27 05:32:00,
2013-08-27 00:35:00,76.2,71.7,29.82,WNW,284,0.0,0.0,86,0.00,,---,0.00,VWS V14.00,2013-08-27 05:35:00,
2013-08-27 00:38:00,76.1,71.6,29.82,WNW,285,0.0,1.0,86,0.00,,---,0.00,VWS V14.00,2013-08-27 05:38:00,
2013-08-27 00:40:00,76.1,71.6,29.82,WNW,285,0.0,1.0,86,0.00,,---,0.00,VWS V14.00,2013-08-27 05:40:00,
2013-08-27 00:43:00,76.0,71.9,29.81,WNW,285,0.0,0.0,87,0.00,,---,0.00,VWS V14.00,2013-08-27 05:43:00,
2013-08-27 00:45:00,76.0,71.9,29.82,WNW,284,0.0,0.0,87,0.00,,---,0.00,VWS V14.00,2013-08-27 05:45:00,
2013-08-27 00:48:00,76.0,71.9,29.81,WNW,285,0.0,0.0,87,0.00,,---,0.00,VWS V14.00,2013-08-27 05:48:00,
2013-08-27 00:50:00,76.0,71.9,29.81,WNW,284,0.0,0.0,87,0.00,,---,0.00,VWS V14.00,2013-08-27 05:50:00,
2013-08-27 00:53:00,75.9,71.8,29.81,WNW,285,0.0,0.0,87,0.00,,---,0.00,VWS V14.00,2013-08-27 05:53:00,
2013-08-27 00:55:00,75.9,71.8,29.81,WNW,285,0.0,0.0,87,0.00,,---,0.00,VWS V14.00,2013-08-27 05:55:00,
2013-08-27 00:58:00,75.8,71.7,29.81,WNW,285,0.0,0.0,87,0.00,,---,0.00,VWS V14.00,2013-08-27 05:58:00,
2013-08-27 01:00:00,75.8,71.7,29.81,WNW,284,0.0,0.0,87,0.00,,---,0.00,VWS V14.00,2013-08-27 06:00:00,
2013-08-27 01:03:00,75.8,71.7,29.81,WNW,284,0.0,0.0,87,0.00,,---,0.00,VWS V14.00,2013-08-27 06:03:00,
2013-08-27 01:05:00,75.8,71.7,29.81,WNW,284,0.0,1.0,87,0.00,,---,0.00,VWS V14.00,2013-08-27 06:05:00,
2013-08-27 01:08:00,75.7,71.6,29.81,WNW,285,0.0,0.0,87,0.00,,---,0.00,VWS V14.00,2013-08-27 06:08:00,
2013-08-27 01:10:00,75.7,71.6,29.81,WNW,285,0.0,0.0,87,0.00,,---,0.00,VWS V14.00,2013-08-27 06:10:00,
2013-08-27 01:13:00,75.6,71.5,29.81,WNW,284,0.0,0.0,87,0.00,,---,0.00,VWS V14.00,2013-08-27 06:13:00,
2013-08-27 01:15:00,75.6,71.5,29.81,WNW,285,0.0,0.0,87,0.00,,---,0.00,VWS V14.00,2013-08-27 06:15:00,
2013-08-27 01:18:00,75.5,71.7,29.81,WNW,285,0.0,0.0,88,0.00,,---,0.00,VWS V14.00,2013-08-27 06:18:00,
2013-08-27 01:20:00,75.5,71.4,29.81,WNW,284,0.0,0.0,87,0.00,,---,0.00,VWS V14.00,2013-08-27 06:20:00,
2013-08-27 01:23:00,75.3,71.5,29.81,WNW,284,0.0,1.0,88,0.00,,---,0.00,VWS V14.00,2013-08-27 06:23:00,
2013-08-27 01:25:00,75.3,71.5,29.81,WNW,284,0.0,1.0,88,0.00,,---,0.00,VWS V14.00,2013-08-27 06:25:00,
2013-08-27 01:28:00,75.3,71.5,29.81,WNW,285,0.0,1.0,88,0.00,,---,0.00,VWS V14.00,2013-08-27 06:28:00,
2013-08-27 01:30:00,75.2,71.4,29.81,WNW,285,0.0,1.0,88,0.00,,---,0.00,VWS V14.00,2013-08-27 06:30:00,
2013-08-27 01:33:00,75.2,71.4,29.81,WNW,284,0.0,1.0,88,0.00,,---,0.00,VWS V14.00,2013-08-27 06:33:00,
2013-08-27 01:35:00,75.2,71.4,29.81,WNW,285,0.0,1.0,88,0.00,,---,0.00,VWS V14.00,2013-08-27 06:35:00,
2013-08-27 01:38:00,75.1,71.3,29.81,WNW,285,0.0,0.0,88,0.00,,---,0.00,VWS V14.00,2013-08-27 06:38:00,
2013-08-27 01:40:00,75.1,71.3,29.81,WNW,285,0.0,0.0,88,0.00,,---,0.00,VWS V14.00,2013-08-27 06:40:00,
2013-08-27 01:43:00,75.0,71.2,29.80,WNW,285,0.0,1.0,88,0.00,,---,0.00,VWS V14.00,2013-08-27 06:43:00,
2013-08-27 01:45:00,75.0,71.2,29.80,WNW,284,0.0,1.0,88,0.00,,---,0.00,VWS V14.00,2013-08-27 06:45:00,
2013-08-27 01:48:00,74.9,71.1,29.80,WNW,285,0.0,0.0,88,0.00,,---,0.00,VWS V14.00,2013-08-27 06:48:00,
2013-08-27 01:50:00,74.9,71.1,29.80,WNW,285,0.0,0.0,88,0.00,,---,0.00,VWS V14.00,2013-08-27 06:50:00,
2013-08-27 01:53:00,74.9,71.1,29.80,WNW,285,0.0,0.0,88,0.00,,---,0.00,VWS V14.00,2013-08-27 06:53:00,
2013-08-27 01:55:00,74.9,71.1,29.80,WNW,285,0.0,1.0,88,0.00,,---,0.00,VWS V14.00,2013-08-27 06:55:00,
2013-08-27 01:58:00,74.8,71.0,29.80,WNW,285,0.0,1.0,88,0.00,,---,0.00,VWS V14.00,2013-08-27 06:58:00,
2013-08-27 02:00:00,74.8,71.0,29.80,WNW,284,0.0,1.0,88,0.00,,---,0.00,VWS V14.00,2013-08-27 07:00:00,
2013-08-27 02:03:00,74.7,70.9,29.79,WNW,285,0.0,0.0,88,0.00,,---,0.00,VWS V14.00,2013-08-27 07:03:00,
2013-08-27 02:05:00,74.7,70.9,29.79,WNW,284,0.0,0.0,88,0.00,,---,0.00,VWS V14.00,2013-08-27 07:05:00,
2013-08-27 02:08:00,74.7,70.9,29.79,WNW,284,0.0,0.0,88,0.00,,---,0.00,VWS V14.00,2013-08-27 07:08:00,
2013-08-27 02:10:00,74.7,70.9,29.79,WNW,285,0.0,0.0,88,0.00,,---,0.00,VWS V14.00,2013-08-27 07:10:00,
2013-08-27 02:13:00,74.6,70.8,29.78,WNW,284,0.0,0.0,88,0.00,,---,0.00,VWS V14.00,2013-08-27 07:13:00,
2013-08-27 02:15:00,74.6,70.8,29.78,WNW,285,0.0,0.0,88,0.00,,---,0.00,VWS V14.00,2013-08-27 07:15:00,
2013-08-27 02:18:00,74.6,70.8,29.78,WNW,285,0.0,1.0,88,0.00,,---,0.00,VWS V14.00,2013-08-27 07:18:00,
2013-08-27 02:20:00,74.6,70.8,29.78,WNW,285,0.0,1.0,88,0.00,,---,0.00,VWS V14.00,2013-08-27 07:20:00,
2013-08-27 02:24:00,74.7,70.9,29.78,WNW,284,0.0,0.0,88,0.00,,---,0.00,VWS V14.00,2013-08-27 07:24:00,
2013-08-27 02:25:00,74.7,70.9,29.78,WNW,285,0.0,0.0,88,0.00,,---,0.00,VWS V14.00,2013-08-27 07:25:00,
2013-08-27 02:29:00,74.7,70.9,29.78,WNW,285,0.0,1.0,88,0.00,,---,0.00,VWS V14.00,2013-08-27 07:29:00,
2013-08-27 02:30:00,74.7,70.9,29.78,WNW,285,0.0,1.0,88,0.00,,---,0.00,VWS V14.00,2013-08-27 07:30:00,
2013-08-27 02:34:00,74.7,70.9,29.78,WNW,285,0.0,0.0,88,0.00,,---,0.00,VWS V14.00,2013-08-27 07:34:00,
2013-08-27 02:35:00,74.7,70.9,29.78,WNW,284,0.0,0.0,88,0.00,,---,0.00,VWS V14.00,2013-08-27 07:35:00,
2013-08-27 02:39:00,74.8,71.0,29.77,WNW,284,0.0,0.0,88,0.00,,---,0.00,VWS V14.00,2013-08-27 07:39:00,
2013-08-27 02:40:00,74.8,71.0,29.77,WNW,284,0.0,0.0,88,0.00,,---,0.00,VWS V14.00,2013-08-27 07:40:00,
2013-08-27 02:44:00,74.9,71.1,29.78,WNW,285,0.0,1.0,88,0.00,,---,0.00,VWS V14.00,2013-08-27 07:44:00,
2013-08-27 02:45:00,74.9,71.1,29.78,WNW,285,1.0,2.0,88,0.00,,---,0.00,VWS V14.00,2013-08-27 07:45:00,
2013-08-27 02:49:00,75.1,71.0,29.78,WNW,284,0.0,1.0,87,0.00,,---,0.00,VWS V14.00,2013-08-27 07:49:00,
2013-08-27 02:50:00,75.1,71.0,29.78,WNW,285,0.0,1.0,87,0.00,,---,0.00,VWS V14.00,2013-08-27 07:50:00,
2013-08-27 02:54:00,75.3,71.2,29.78,WNW,285,0.0,1.0,87,0.00,,---,0.00,VWS V14.00,2013-08-27 07:54:00,
2013-08-27 02:55:00,75.3,71.2,29.78,WNW,284,0.0,1.0,87,0.00,,---,0.00,VWS V14.00,2013-08-27 07:55:00,
2013-08-27 02:59:00,75.4,70.9,29.78,WNW,284,0.0,1.0,86,0.00,,---,0.00,VWS V14.00,2013-08-27 07:59:00,
2013-08-27 03:00:00,75.4,70.9,29.78,WNW,285,0.0,1.0,86,0.00,,---,0.00,VWS V14.00,2013-08-27 08:00:00,
2013-08-27 03:04:00,75.6,71.1,29.78,WNW,285,0.0,1.0,86,0.00,,---,0.00,VWS V14.00,2013-08-27 08:04:00,
2013-08-27 03:05:00,75.6,71.1,29.78,WNW,285,0.0,1.0,86,0.00,,---,0.00,VWS V14.00,2013-08-27 08:05:00,
2013-08-27 03:09:00,75.9,71.4,29.77,West,261,0.0,3.0,86,0.00,,---,0.00,VWS V14.00,2013-08-27 08:09:00,
2013-08-27 03:10:00,75.9,71.1,29.77,West,261,0.0,3.0,85,0.00,,---,0.00,VWS V14.00,2013-08-27 08:10:00,
2013-08-27 03:14:00,76.2,71.4,29.78,West,261,0.0,2.0,85,0.00,,---,0.00,VWS V14.00,2013-08-27 08:14:00,
2013-08-27 03:15:00,76.2,71.4,29.78,West,261,0.0,2.0,85,0.00,,---,0.00,VWS V14.00,2013-08-27 08:15:00,
2013-08-27 03:19:00,76.4,71.2,29.77,SW,218,0.0,4.0,84,0.00,,---,0.00,VWS V14.00,2013-08-27 08:19:00,
2013-08-27 03:20:00,76.4,71.2,29.77,SW,218,1.0,4.0,84,0.00,,---,0.00,VWS V14.00,2013-08-27 08:20:00,
2013-08-27 03:24:00,76.6,71.4,29.77,SW,217,0.0,5.0,84,0.00,,---,0.00,VWS V14.00,2013-08-27 08:24:00,
2013-08-27 03:25:00,76.6,71.4,29.77,SW,217,0.0,5.0,84,0.00,,---,0.00,VWS V14.00,2013-08-27 08:25:00,
2013-08-27 03:29:00,76.7,71.2,29.77,SSW,208,0.0,6.0,83,0.00,,---,0.00,VWS V14.00,2013-08-27 08:29:00,
2013-08-27 03:30:00,76.7,71.2,29.77,SSW,208,0.0,6.0,83,0.00,,---,0.00,VWS V14.00,2013-08-27 08:30:00,
2013-08-27 03:34:00,76.8,71.2,29.77,SSW,207,0.0,3.0,83,0.00,,---,0.00,VWS V14.00,2013-08-27 08:34:00,
2013-08-27 03:35:00,76.8,71.2,29.77,SSW,207,0.0,3.0,83,0.00,,---,0.00,VWS V14.00,2013-08-27 08:35:00,
2013-08-27 03:39:00,76.8,71.2,29.77,SSW,209,0.0,6.0,83,0.00,,---,0.00,VWS V14.00,2013-08-27 08:39:00,
2013-08-27 03:40:00,76.8,71.2,29.77,SSW,209,0.0,6.0,83,0.00,,---,0.00,VWS V14.00,2013-08-27 08:40:00,
2013-08-27 03:44:00,76.6,71.1,29.78,SSW,209,0.0,1.0,83,0.00,,---,0.00,VWS V14.00,2013-08-27 08:44:00,
2013-08-27 03:45:00,76.6,71.1,29.78,SSW,209,0.0,1.0,83,0.00,,---,0.00,VWS V14.00,2013-08-27 08:45:00,
2013-08-27 03:49:00,76.4,71.2,29.78,SSW,209,0.0,0.0,84,0.00,,---,0.00,VWS V14.00,2013-08-27 08:49:00,
2013-08-27 03:50:00,76.4,71.2,29.78,SSW,209,0.0,0.0,84,0.00,,---,0.00,VWS V14.00,2013-08-27 08:50:00,
2013-08-27 03:54:00,76.2,71.0,29.78,SSW,209,0.0,1.0,84,0.00,,---,0.00,VWS V14.00,2013-08-27 08:54:00,
2013-08-27 03:55:00,76.2,71.0,29.78,SSW,209,0.0,1.0,84,0.00,,---,0.00,VWS V14.00,2013-08-27 08:55:00,
2013-08-27 03:59:00,76.0,71.2,29.78,SSW,209,0.0,0.0,85,0.00,,---,0.00,VWS V14.00,2013-08-27 08:59:00,
2013-08-27 04:00:00,76.0,71.2,29.78,SSW,209,0.0,0.0,85,0.00,,---,0.00,VWS V14.00,2013-08-27 09:00:00,
2013-08-27 04:04:00,75.8,71.0,29.78,SSW,209,0.0,1.0,85,0.00,,---,0.00,VWS V14.00,2013-08-27 09:04:00,
2013-08-27 04:05:00,75.8,71.0,29.78,SSW,209,0.0,1.0,85,0.00,,---,0.00,VWS V14.00,2013-08-27 09:05:00,
2013-08-27 04:09:00,75.7,70.9,29.78,SSW,209,0.0,1.0,85,0.00,,---,0.00,VWS V14.00,2013-08-27 09:09:00,
2013-08-27 04:10:00,75.7,70.9,29.78,SSW,209,0.0,1.0,85,0.00,,---,0.00,VWS V14.00,2013-08-27 09:10:00,
2013-08-27 04:14:00,75.5,71.0,29.78,SSW,209,0.0,0.0,86,0.00,,---,0.00,VWS V14.00,2013-08-27 09:14:00,
2013-08-27 04:15:00,75.5,71.0,29.78,SSW,209,0.0,0.0,86,0.00,,---,0.00,VWS V14.00,2013-08-27 09:15:00,
2013-08-27 04:19:00,75.3,70.8,29.78,SSW,209,0.0,0.0,86,0.00,,---,0.00,VWS V14.00,2013-08-27 09:19:00,
2013-08-27 04:20:00,75.3,70.8,29.78,SSW,209,0.0,0.0,86,0.00,,---,0.00,VWS V14.00,2013-08-27 09:20:00,
2013-08-27 04:24:00,75.1,70.6,29.78,SSW,209,0.0,1.0,86,0.00,,---,0.00,VWS V14.00,2013-08-27 09:24:00,
2013-08-27 04:25:00,75.1,70.6,29.78,SSW,209,0.0,1.0,86,0.00,,---,0.00,VWS V14.00,2013-08-27 09:25:00,
2013-08-27 04:29:00,74.9,70.8,29.78,SSW,209,0.0,2.0,87,0.00,,---,0.00,VWS V14.00,2013-08-27 09:29:00,
2013-08-27 04:30:00,74.9,70.8,29.78,SSW,209,0.0,2.0,87,0.00,,---,0.00,VWS V14.00,2013-08-27 09:30:00,
2013-08-27 04:34:00,74.8,70.7,29.78,SSW,209,0.0,0.0,87,0.00,,---,0.00,VWS V14.00,2013-08-27 09:34:00,
2013-08-27 04:35:00,74.8,70.7,29.78,SSW,209,0.0,0.0,87,0.00,,---,0.00,VWS V14.00,2013-08-27 09:35:00,
2013-08-27 04:39:00,74.7,70.6,29.78,SSW,209,0.0,0.0,87,0.00,,---,0.00,VWS V14.00,2013-08-27 09:39:00,
2013-08-27 04:40:00,74.7,70.6,29.78,SSW,209,0.0,0.0,87,0.00,,---,0.00,VWS V14.00,2013-08-27 09:40:00,
2013-08-27 04:44:00,74.5,70.4,29.78,SSW,209,0.0,1.0,87,0.00,,---,0.00,VWS V14.00,2013-08-27 09:44:00,
2013-08-27 04:45:00,74.5,70.4,29.78,SSW,209,0.0,1.0,87,0.00,,---,0.00,VWS V14.00,2013-08-27 09:45:00,
2013-08-27 04:49:00,74.3,70.5,29.78,SSW,209,0.0,1.0,88,0.00,,---,0.00,VWS V14.00,2013-08-27 09:49:00,
2013-08-27 04:50:00,74.3,70.5,29.78,SSW,209,0.0,1.0,88,0.00,,---,0.00,VWS V14.00,2013-08-27 09:50:00,
2013-08-27 04:54:00,74.1,70.3,29.78,SSW,209,0.0,0.0,88,0.00,,---,0.00,VWS V14.00,2013-08-27 09:54:00,
2013-08-27 04:55:00,74.1,70.3,29.78,SSW,209,0.0,0.0,88,0.00,,---,0.00,VWS V14.00,2013-08-27 09:55:00,
2013-08-27 04:59:00,74.1,70.3,29.78,SSW,209,0.0,1.0,88,0.00,,---,0.00,VWS V14.00,2013-08-27 09:59:00,
2013-08-27 05:00:00,74.1,70.3,29.78,SSW,209,0.0,1.0,88,0.00,,---,0.00,VWS V14.00,2013-08-27 10:00:00,
2013-08-27 05:04:00,74.0,70.2,29.78,SSW,209,0.0,0.0,88,0.00,,---,0.00,VWS V14.00,2013-08-27 10:04:00,
2013-08-27 05:05:00,74.0,70.2,29.78,SSW,209,0.0,0.0,88,0.00,,---,0.00,VWS V14.00,2013-08-27 10:05:00,
2013-08-27 05:09:00,73.9,70.1,29.78,SSW,209,0.0,0.0,88,0.00,,---,0.00,VWS V14.00,2013-08-27 10:09:00,
2013-08-27 05:10:00,73.9,70.1,29.78,SSW,209,0.0,0.0,88,0.00,,---,0.00,VWS V14.00,2013-08-27 10:10:00,
2013-08-27 05:14:00,73.7,69.9,29.78,SSW,209,0.0,0.0,88,0.00,,---,0.00,VWS V14.00,2013-08-27 10:14:00,
2013-08-27 05:15:00,73.7,69.9,29.78,SSW,209,0.0,0.0,88,0.00,,---,0.00,VWS V14.00,2013-08-27 10:15:00,
2013-08-27 05:19:00,73.6,70.2,29.78,SSW,209,0.0,0.0,89,0.00,,---,0.00,VWS V14.00,2013-08-27 10:19:00,
2013-08-27 05:20:00,73.6,70.2,29.78,SSW,209,0.0,0.0,89,0.00,,---,0.00,VWS V14.00,2013-08-27 10:20:00,
2013-08-27 05:24:00,73.4,70.0,29.78,SSW,209,0.0,1.0,89,0.00,,---,0.00,VWS V14.00,2013-08-27 10:24:00,
2013-08-27 05:25:00,73.4,70.0,29.78,SSW,209,0.0,1.0,89,0.00,,---,0.00,VWS V14.00,2013-08-27 10:25:00,
2013-08-27 05:29:00,73.3,69.9,29.78,SSW,209,0.0,0.0,89,0.00,,---,0.00,VWS V14.00,2013-08-27 10:29:00,
2013-08-27 05:30:00,73.3,69.9,29.78,SSW,209,0.0,0.0,89,0.00,,---,0.00,VWS V14.00,2013-08-27 10:30:00,
2013-08-27 05:34:00,73.3,69.9,29.78,SSW,209,0.0,0.0,89,0.00,,---,0.00,VWS V14.00,2013-08-27 10:34:00,
2013-08-27 05:35:00,73.3,69.9,29.78,SSW,209,0.0,0.0,89,0.00,,---,0.00,VWS V14.00,2013-08-27 10:35:00,
2013-08-27 05:39:00,73.2,70.1,29.78,SSW,209,0.0,0.0,90,0.00,,---,0.00,VWS V14.00,2013-08-27 10:39:00,
2013-08-27 05:40:00,73.2,70.1,29.78,SSW,209,0.0,0.0,90,0.00,,---,0.00,VWS V14.00,2013-08-27 10:40:00,
2013-08-27 05:44:00,73.2,70.1,29.78,SSW,209,1.0,1.0,90,0.00,,---,0.00,VWS V14.00,2013-08-27 10:44:00,
2013-08-27 05:45:00,73.2,70.1,29.78,SSW,209,1.0,1.0,90,0.00,,---,0.00,VWS V14.00,2013-08-27 10:45:00,
2013-08-27 05:49:00,73.2,70.1,29.78,SSW,209,0.0,1.0,90,0.00,,---,0.00,VWS V14.00,2013-08-27 10:49:00,
2013-08-27 05:50:00,73.2,70.1,29.78,SSW,209,0.0,1.0,90,0.00,,---,0.00,VWS V14.00,2013-08-27 10:50:00,
2013-08-27 05:54:00,73.2,70.1,29.78,SSW,209,0.0,0.0,90,0.00,,---,0.00,VWS V14.00,2013-08-27 10:54:00,
2013-08-27 05:55:00,73.2,70.1,29.78,SSW,209,0.0,0.0,90,0.00,,---,0.00,VWS V14.00,2013-08-27 10:55:00,
2013-08-27 05:59:00,73.1,69.7,29.78,SSW,209,0.0,0.0,89,0.00,,---,0.00,VWS V14.00,2013-08-27 10:59:00,
2013-08-27 06:00:00,73.1,69.7,29.78,SSW,209,0.0,0.0,89,0.00,,---,0.00,VWS V14.00,2013-08-27 11:00:00,
2013-08-27 06:04:00,73.1,69.7,29.79,SSW,209,0.0,0.0,89,0.00,,---,0.00,VWS V14.00,2013-08-27 11:04:00,
2013-08-27 06:05:00,73.1,69.7,29.79,SSW,209,0.0,0.0,89,0.00,,---,0.00,VWS V14.00,2013-08-27 11:05:00,
2013-08-27 06:09:00,73.0,69.9,29.79,SSW,209,0.0,1.0,90,0.00,,---,0.00,VWS V14.00,2013-08-27 11:09:00,
2013-08-27 06:10:00,73.0,69.9,29.79,SSW,209,0.0,1.0,90,0.00,,---,0.00,VWS V14.00,2013-08-27 11:10:00,
2013-08-27 06:14:00,72.9,69.8,29.79,SSW,209,0.0,0.0,90,0.00,,---,0.00,VWS V14.00,2013-08-27 11:14:00,
2013-08-27 06:15:00,72.9,69.8,29.79,SSW,209,0.0,1.0,90,0.00,,---,0.00,VWS V14.00,2013-08-27 11:15:00,
2013-08-27 06:19:00,72.8,69.7,29.79,SSW,209,0.0,1.0,90,0.00,,---,0.00,VWS V14.00,2013-08-27 11:19:00,
2013-08-27 06:20:00,72.8,69.7,29.79,SSW,209,0.0,1.0,90,0.00,,---,0.00,VWS V14.00,2013-08-27 11:20:00,
2013-08-27 06:24:00,72.8,69.7,29.79,SSW,209,0.0,0.0,90,0.00,,---,0.00,VWS V14.00,2013-08-27 11:24:00,
2013-08-27 06:25:00,72.8,69.7,29.79,SSW,209,0.0,0.0,90,0.00,,---,0.00,VWS V14.00,2013-08-27 11:25:00,
2013-08-27 06:29:00,72.7,69.6,29.79,SSW,209,0.0,0.0,90,0.00,,---,0.00,VWS V14.00,2013-08-27 11:29:00,
2013-08-27 06:30:00,72.7,69.6,29.79,SSW,209,0.0,0.0,90,0.00,,---,0.00,VWS V14.00,2013-08-27 11:30:00,
2013-08-27 06:34:00,72.6,69.5,29.79,SSW,209,0.0,1.0,90,0.00,,---,0.00,VWS V14.00,2013-08-27 11:34:00,
2013-08-27 06:35:00,72.6,69.5,29.79,SSW,209,0.0,1.0,90,0.00,,---,0.00,VWS V14.00,2013-08-27 11:35:00,
2013-08-27 06:39:00,72.6,69.5,29.79,SSW,209,0.0,0.0,90,0.00,,---,0.00,VWS V14.00,2013-08-27 11:39:00,
2013-08-27 06:40:00,72.6,69.5,29.79,SSW,209,0.0,0.0,90,0.00,,---,0.00,VWS V14.00,2013-08-27 11:40:00,
2013-08-27 06:44:00,72.6,69.5,29.79,SSW,209,0.0,0.0,90,0.00,,---,0.00,VWS V14.00,2013-08-27 11:44:00,
2013-08-27 06:45:00,72.6,69.5,29.79,SSW,209,0.0,0.0,90,0.00,,---,0.00,VWS V14.00,2013-08-27 11:45:00,
2013-08-27 06:49:00,72.6,69.5,29.79,SSW,209,0.0,1.0,90,0.00,,---,0.00,VWS V14.00,2013-08-27 11:49:00,
2013-08-27 06:50:00,72.6,69.5,29.79,SSW,209,0.0,1.0,90,0.00,,---,0.00,VWS V14.00,2013-08-27 11:50:00,
2013-08-27 06:54:00,72.6,69.5,29.79,SSW,209,0.0,0.0,90,0.00,,---,0.00,VWS V14.00,2013-08-27 11:54:00,
2013-08-27 06:55:00,72.6,69.5,29.79,SSW,209,0.0,0.0,90,0.00,,---,0.00,VWS V14.00,2013-08-27 11:55:00,
2013-08-27 06:59:00,72.6,69.8,29.79,SSW,209,0.0,1.0,91,0.00,,---,0.00,VWS V14.00,2013-08-27 11:59:00,
2013-08-27 07:00:00,72.6,69.8,29.79,SSW,209,0.0,1.0,91,0.00,,---,0.00,VWS V14.00,2013-08-27 12:00:00,
2013-08-27 07:04:00,72.7,69.9,29.79,SSW,209,0.0,0.0,91,0.00,,---,0.00,VWS V14.00,2013-08-27 12:04:00,
2013-08-27 07:05:00,72.7,69.9,29.79,SSW,209,0.0,0.0,91,0.00,,---,0.00,VWS V14.00,2013-08-27 12:05:00,
2013-08-27 07:09:00,72.8,70.0,29.79,SSW,209,0.0,1.0,91,0.00,,---,0.00,VWS V14.00,2013-08-27 12:09:00,
2013-08-27 07:10:00,72.8,70.0,29.79,SSW,209,0.0,1.0,91,0.00,,---,0.00,VWS V14.00,2013-08-27 12:10:00,
2013-08-27 07:14:00,73.0,70.2,29.79,SSW,209,0.0,0.0,91,0.00,,---,0.00,VWS V14.00,2013-08-27 12:14:00,
2013-08-27 07:15:00,73.0,70.2,29.79,SSW,209,0.0,0.0,91,0.00,,---,0.00,VWS V14.00,2013-08-27 12:15:00,
2013-08-27 07:19:00,73.2,70.4,29.78,SSW,209,0.0,1.0,91,0.00,,---,0.00,VWS V14.00,2013-08-27 12:19:00,
2013-08-27 07:20:00,73.2,70.4,29.78,SSW,209,0.0,1.0,91,0.00,,---,0.00,VWS V14.00,2013-08-27 12:20:00,
2013-08-27 07:24:00,73.5,70.7,29.78,SSW,209,0.0,0.0,91,0.00,,---,0.00,VWS V14.00,2013-08-27 12:24:00,
2013-08-27 07:25:00,73.5,70.7,29.78,SSW,209,0.0,0.0,91,0.00,,---,0.00,VWS V14.00,2013-08-27 12:25:00,
2013-08-27 07:29:00,73.9,70.8,29.78,SSW,209,0.0,0.0,90,0.00,,---,0.00,VWS V14.00,2013-08-27 12:29:00,
2013-08-27 07:30:00,73.9,70.8,29.78,SSW,209,0.0,0.0,90,0.00,,---,0.00,VWS V14.00,2013-08-27 12:30:00,
2013-08-27 07:34:00,74.6,71.2,29.78,SSW,209,0.0,2.0,89,0.00,,---,0.00,VWS V14.00,2013-08-27 12:34:00,
2013-08-27 07:35:00,74.6,71.2,29.78,SSW,209,0.0,2.0,89,0.00,,---,0.00,VWS V14.00,2013-08-27 12:35:00,
2013-08-27 07:39:00,75.7,71.6,29.77,SSW,209,0.0,3.0,87,0.00,,---,0.00,VWS V14.00,2013-08-27 12:39:00,
2013-08-27 07:40:00,75.7,71.6,29.77,SSW,209,0.0,3.0,87,0.00,,---,0.00,VWS V14.00,2013-08-27 12:40:00,
2013-08-27 07:44:00,76.6,72.1,29.77,SSW,209,0.0,1.0,86,0.00,,---,0.00,VWS V14.00,2013-08-27 12:44:00,
2013-08-27 07:45:00,76.6,72.1,29.77,SSW,209,0.0,1.0,86,0.00,,---,0.00,VWS V14.00,2013-08-27 12:45:00,
2013-08-27 07:49:00,77.3,71.7,29.77,SSW,210,0.0,4.0,83,0.00,,---,0.00,VWS V14.00,2013-08-27 12:49:00,
2013-08-27 07:50:00,77.3,71.7,29.77,SSW,210,0.0,4.0,83,0.00,,---,0.00,VWS V14.00,2013-08-27 12:50:00,
2013-08-27 07:54:00,77.6,71.7,29.77,SSW,210,0.0,2.0,82,0.00,,---,0.00,VWS V14.00,2013-08-27 12:54:00,
2013-08-27 07:55:00,77.6,71.7,29.77,SSW,210,0.0,2.0,82,0.00,,---,0.00,VWS V14.00,2013-08-27 12:55:00,
2013-08-27 07:59:00,77.7,71.4,29.77,SSW,213,0.0,4.0,81,0.00,,---,0.00,VWS V14.00,2013-08-27 12:59:00,
2013-08-27 08:00:00,77.7,71.4,29.77,SSW,213,0.0,4.0,81,0.00,,---,0.00,VWS V14.00,2013-08-27 13:00:00,
2013-08-27 08:04:00,78.0,71.7,29.77,SSW,213,1.0,2.0,81,0.00,,---,0.00,VWS V14.00,2013-08-27 13:04:00,
2013-08-27 08:05:00,78.0,71.7,29.77,SSW,213,1.0,2.0,81,0.00,,---,0.00,VWS V14.00,2013-08-27 13:05:00,
2013-08-27 08:09:00,78.3,72.0,29.77,SSW,210,0.0,4.0,81,0.00,,---,0.00,VWS V14.00,2013-08-27 13:09:00,
2013-08-27 08:10:00,78.3,72.0,29.77,SSW,210,0.0,4.0,81,0.00,,---,0.00,VWS V14.00,2013-08-27 13:10:00,
2013-08-27 08:14:00,78.7,72.0,29.77,South,182,0.0,4.0,80,0.00,,---,0.00,VWS V14.00,2013-08-27 13:14:00,
2013-08-27 08:15:00,78.7,72.0,29.77,South,182,0.0,4.0,80,0.00,,---,0.00,VWS V14.00,2013-08-27 13:15:00,
2013-08-27 08:19:00,79.2,72.1,29.77,SSW,211,0.0,4.0,79,0.00,,---,0.00,VWS V14.00,2013-08-27 13:19:00,
2013-08-27 08:20:00,79.2,72.1,29.77,SSW,211,0.0,4.0,79,0.00,,---,0.00,VWS V14.00,2013-08-27 13:20:00,
2013-08-27 08:24:00,79.5,72.8,29.77,SSW,206,0.0,2.0,80,0.00,,---,0.00,VWS V14.00,2013-08-27 13:24:00,
2013-08-27 08:25:00,79.5,72.8,29.77,SSW,206,0.0,2.0,80,0.00,,---,0.00,VWS V14.00,2013-08-27 13:25:00,
2013-08-27 08:29:00,79.8,72.7,29.77,SSW,203,0.0,7.0,79,0.00,,---,0.00,VWS V14.00,2013-08-27 13:29:00,
2013-08-27 08:30:00,79.8,72.7,29.77,SSW,203,0.0,7.0,79,0.00,,---,0.00,VWS V14.00,2013-08-27 13:30:00,
2013-08-27 08:34:00,80.0,72.5,29.77,South,191,0.0,7.0,78,0.00,,---,0.00,VWS V14.00,2013-08-27 13:34:00,
2013-08-27 08:35:00,80.0,72.5,29.77,South,191,0.0,7.0,78,0.00,,---,0.00,VWS V14.00,2013-08-27 13:35:00,
2013-08-27 08:39:00,80.0,72.2,29.77,SSW,200,0.0,7.0,77,0.00,,---,0.00,VWS V14.00,2013-08-27 13:39:00,
2013-08-27 08:40:00,80.0,72.2,29.77,SSW,200,0.0,7.0,77,0.00,,---,0.00,VWS V14.00,2013-08-27 13:40:00,
2013-08-27 08:44:00,80.2,72.7,29.76,SSE,163,0.0,5.0,78,0.00,,---,0.00,VWS V14.00,2013-08-27 13:44:00,
2013-08-27 08:45:00,80.2,72.7,29.76,SSE,163,0.0,5.0,78,0.00,,---,0.00,VWS V14.00,2013-08-27 13:45:00,
2013-08-27 08:49:00,80.8,72.9,29.76,SW,215,1.0,4.0,77,0.00,,---,0.00,VWS V14.00,2013-08-27 13:49:00,
2013-08-27 08:50:00,80.8,72.9,29.76,SW,215,1.0,4.0,77,0.00,,---,0.00,VWS V14.00,2013-08-27 13:50:00,
2013-08-27 08:54:00,81.4,73.5,29.76,SSW,211,2.0,3.0,77,0.00,,---,0.00,VWS V14.00,2013-08-27 13:54:00,
2013-08-27 08:55:00,81.4,73.5,29.76,SSW,211,2.0,3.0,77,0.00,,---,0.00,VWS V14.00,2013-08-27 13:55:00,
2013-08-27 08:59:00,81.6,72.9,29.76,SSW,205,0.0,5.0,75,0.00,,---,0.00,VWS V14.00,2013-08-27 13:59:00,
2013-08-27 09:00:00,81.6,72.9,29.76,SSW,205,0.0,5.0,75,0.00,,---,0.00,VWS V14.00,2013-08-27 14:00:00,
2013-08-27 09:04:00,81.7,73.0,29.76,SSE,165,0.0,5.0,75,0.00,,---,0.00,VWS V14.00,2013-08-27 14:04:00,
2013-08-27 09:05:00,81.7,73.0,29.76,SSE,165,0.0,5.0,75,0.00,,---,0.00,VWS V14.00,2013-08-27 14:05:00,
2013-08-27 09:09:00,82.0,73.7,29.76,South,184,0.0,3.0,76,0.00,,---,0.00,VWS V14.00,2013-08-27 14:09:00,
2013-08-27 09:10:00,82.0,73.7,29.76,South,184,0.0,3.0,76,0.00,,---,0.00,VWS V14.00,2013-08-27 14:10:00,
2013-08-27 09:14:00,82.3,73.6,29.76,SSW,205,0.0,5.0,75,0.00,,---,0.00,VWS V14.00,2013-08-27 14:14:00,
2013-08-27 09:15:00,82.3,73.6,29.76,SSW,205,0.0,5.0,75,0.00,,---,0.00,VWS V14.00,2013-08-27 14:15:00,
2013-08-27 09:19:00,82.8,73.3,29.76,South,169,1.0,6.0,73,0.00,,---,0.00,VWS V14.00,2013-08-27 14:19:00,
2013-08-27 09:20:00,82.8,73.3,29.76,South,169,1.0,6.0,73,0.00,,---,0.00,VWS V14.00,2013-08-27 14:20:00,
2013-08-27 09:24:00,82.8,73.7,29.76,South,184,4.0,7.0,74,0.00,,---,0.00,VWS V14.00,2013-08-27 14:24:00,
2013-08-27 09:25:00,82.8,73.7,29.76,South,184,4.0,7.0,74,0.00,,---,0.00,VWS V14.00,2013-08-27 14:25:00,
2013-08-27 09:29:00,82.9,73.4,29.75,South,171,0.0,6.0,73,0.00,,---,0.00,VWS V14.00,2013-08-27 14:29:00,
2013-08-27 09:30:00,82.9,73.4,29.75,South,171,0.0,6.0,73,0.00,,---,0.00,VWS V14.00,2013-08-27 14:30:00,
2013-08-27 09:34:00,82.9,73.4,29.76,SSW,201,1.0,3.0,73,0.00,,---,0.00,VWS V14.00,2013-08-27 14:34:00,
2013-08-27 09:35:00,82.9,73.4,29.76,SSW,201,1.0,3.0,73,0.00,,---,0.00,VWS V14.00,2013-08-27 14:35:00,
2013-08-27 09:39:00,82.5,73.0,29.76,SW,223,0.0,5.0,73,0.00,,---,0.00,VWS V14.00,2013-08-27 14:39:00,
2013-08-27 09:40:00,82.5,73.0,29.76,SW,223,0.0,5.0,73,0.00,,---,0.00,VWS V14.00,2013-08-27 14:40:00,
2013-08-27 09:44:00,82.3,73.2,29.75,SSW,199,0.0,6.0,74,0.00,,---,0.00,VWS V14.00,2013-08-27 14:44:00,
2013-08-27 09:45:00,82.3,73.2,29.75,SSW,199,0.0,6.0,74,0.00,,---,0.00,VWS V14.00,2013-08-27 14:45:00,
2013-08-27 09:49:00,82.3,73.2,29.75,SSW,201,0.0,4.0,74,0.00,,---,0.00,VWS V14.00,2013-08-27 14:49:00,
2013-08-27 09:50:00,82.3,73.2,29.75,SSW,201,0.0,4.0,74,0.00,,---,0.00,VWS V14.00,2013-08-27 14:50:00,
2013-08-27 09:54:00,82.2,73.1,29.75,SW,232,0.0,7.0,74,0.00,,---,0.00,VWS V14.00,2013-08-27 14:54:00,
2013-08-27 09:55:00,82.2,73.1,29.75,SW,232,0.0,7.0,74,0.00,,---,0.00,VWS V14.00,2013-08-27 14:55:00,
2013-08-27 09:59:00,82.3,73.2,29.75,SSW,202,2.0,5.0,74,0.00,,---,0.00,VWS V14.00,2013-08-27 14:59:00,
2013-08-27 10:00:00,82.3,73.2,29.75,SSW,202,2.0,5.0,74,0.00,,---,0.00,VWS V14.00,2013-08-27 15:00:00,
2013-08-27 10:04:00,82.3,73.6,29.75,SSW,210,1.0,4.0,75,0.00,,---,0.00,VWS V14.00,2013-08-27 15:04:00,
2013-08-27 10:05:00,82.3,73.6,29.75,SSW,210,1.0,4.0,75,0.00,,---,0.00,VWS V14.00,2013-08-27 15:05:00,
2013-08-27 10:09:00,82.9,74.6,29.75,SSW,198,0.0,5.0,76,0.00,,---,0.00,VWS V14.00,2013-08-27 15:09:00,
2013-08-27 10:10:00,82.9,74.6,29.75,SSW,198,0.0,5.0,76,0.00,,---,0.00,VWS V14.00,2013-08-27 15:10:00,
2013-08-27 10:14:00,83.4,73.4,29.75,WSW,245,1.0,9.0,72,0.00,,---,0.00,VWS V14.00,2013-08-27 15:14:00,
2013-08-27 10:15:00,83.4,73.4,29.75,WSW,245,1.0,9.0,72,0.00,,---,0.00,VWS V14.00,2013-08-27 15:15:00,
2013-08-27 10:19:00,83.6,73.6,29.75,SSW,207,4.0,4.0,72,0.00,,---,0.00,VWS V14.00,2013-08-27 15:19:00,
2013-08-27 10:20:00,83.6,73.6,29.75,South,180,2.0,11.0,72,0.00,,---,0.00,VWS V14.00,2013-08-27 15:20:00,
2013-08-27 10:24:00,83.5,74.8,29.75,SSW,202,0.0,0.0,75,0.00,,---,0.00,VWS V14.00,2013-08-27 15:24:00,
2013-08-27 10:25:00,83.5,74.8,29.75,SSW,202,0.0,6.0,75,0.00,,---,0.00,VWS V14.00,2013-08-27 15:25:00,
2013-08-27 10:29:00,84.0,74.0,29.74,SSW,201,0.0,0.0,72,0.00,,---,0.00,VWS V14.00,2013-08-27 15:29:00,
2013-08-27 10:30:00,84.0,74.0,29.75,SSW,201,0.0,6.0,72,0.00,,---,0.00,VWS V14.00,2013-08-27 15:30:00,
2013-08-27 10:34:00,84.4,74.4,29.74,SSW,203,0.0,1.0,72,0.00,,---,0.00,VWS V14.00,2013-08-27 15:34:00,
2013-08-27 10:35:00,84.3,73.9,29.75,SSW,203,1.0,6.0,71,0.00,,---,0.00,VWS V14.00,2013-08-27 15:35:00,
2013-08-27 10:39:00,84.8,74.8,29.74,South,182,1.0,1.0,72,0.00,,---,0.00,VWS V14.00,2013-08-27 15:39:00,
2013-08-27 10:40:00,84.8,75.2,29.74,South,182,1.0,5.0,73,0.00,,---,0.00,VWS V14.00,2013-08-27 15:40:00,
2013-08-27 10:44:00,85.3,74.4,29.74,SW,218,4.0,5.0,70,0.00,,---,0.00,VWS V14.00,2013-08-27 15:44:00,
2013-08-27 10:45:00,85.2,74.7,29.74,SSW,208,1.0,9.0,71,0.00,,---,0.00,VWS V14.00,2013-08-27 15:45:00,
2013-08-27 10:49:00,85.5,74.6,29.74,SW,221,0.0,0.0,70,0.00,,---,0.00,VWS V14.00,2013-08-27 15:49:00,
2013-08-27 10:50:00,85.5,74.6,29.74,SW,221,0.0,5.0,70,0.00,,---,0.00,VWS V14.00,2013-08-27 15:50:00,
2013-08-27 10:54:00,86.1,74.8,29.74,NW,306,0.0,0.0,69,0.00,,---,0.00,VWS V14.00,2013-08-27 15:54:00,
2013-08-27 10:55:00,86.0,74.7,29.74,NW,306,0.0,7.0,69,0.00,,---,0.00,VWS V14.00,2013-08-27 15:55:00,
2013-08-27 11:00:00,86.8,75.0,29.74,SW,214,2.0,4.0,68,0.00,,---,0.00,VWS V14.00,2013-08-27 16:00:00,
2013-08-27 11:05:00,87.0,75.6,29.74,SW,219,0.0,3.0,69,0.00,,---,0.00,VWS V14.00,2013-08-27 16:05:00,
2013-08-27 11:10:00,87.8,75.0,29.74,WSW,251,0.0,4.0,66,0.00,,---,0.00,VWS V14.00,2013-08-27 16:10:00,
2013-08-27 11:15:00,88.3,75.1,29.73,WSW,248,0.0,1.0,65,0.00,,---,0.00,VWS V14.00,2013-08-27 16:15:00,
2013-08-27 11:20:00,88.6,76.2,29.73,WNW,286,0.0,0.0,67,0.00,,---,0.00,VWS V14.00,2013-08-27 16:20:00,
2013-08-27 11:25:00,88.2,75.0,29.74,SSW,204,3.0,5.0,65,0.00,,---,0.00,VWS V14.00,2013-08-27 16:25:00,
2013-08-27 11:30:00,88.2,74.5,29.74,SSE,158,1.0,4.0,64,0.00,,---,0.00,VWS V14.00,2013-08-27 16:30:00,
2013-08-27 11:35:00,88.5,75.7,29.74,SSW,194,0.0,3.0,66,0.00,,---,0.00,VWS V14.00,2013-08-27 16:35:00,
2013-08-27 11:40:00,88.9,74.7,29.73,West,262,0.0,7.0,63,0.00,,---,0.00,VWS V14.00,2013-08-27 16:40:00,
2013-08-27 11:45:00,89.0,74.8,29.73,WSW,240,0.0,2.0,63,0.00,,---,0.00,VWS V14.00,2013-08-27 16:45:00,
2013-08-27 11:50:00,89.1,75.3,29.73,West,263,0.0,3.0,64,0.00,,---,0.00,VWS V14.00,2013-08-27 16:50:00,
2013-08-27 11:55:00,89.3,76.0,29.73,NNW,345,6.0,6.0,65,0.00,,---,0.00,VWS V14.00,2013-08-27 16:55:00,
2013-08-27 12:00:00,89.4,75.6,29.73,NW,309,4.0,4.0,64,0.00,,---,0.00,VWS V14.00,2013-08-27 17:00:00,
2013-08-27 12:05:00,89.8,76.0,29.72,WSW,250,5.0,5.0,64,0.00,,---,0.00,VWS V14.00,2013-08-27 17:05:00,
2013-08-27 12:10:00,90.0,75.2,29.72,West,273,1.0,6.0,62,0.00,,---,0.00,VWS V14.00,2013-08-27 17:10:00,
2013-08-27 12:15:00,90.0,74.3,29.72,SW,236,3.0,3.0,60,0.00,,---,0.00,VWS V14.00,2013-08-27 17:15:00,
2013-08-27 12:20:00,89.9,74.2,29.72,WSW,257,0.0,5.0,60,0.00,,---,0.00,VWS V14.00,2013-08-27 17:20:00,
2013-08-27 12:25:00,90.2,74.4,29.71,WSW,242,1.0,5.0,60,0.00,,---,0.00,VWS V14.00,2013-08-27 17:25:00,
2013-08-27 12:30:00,90.4,75.1,29.71,South,179,0.0,5.0,61,0.00,,---,0.00,VWS V14.00,2013-08-27 17:30:00,
2013-08-27 12:35:00,90.3,74.5,29.71,WSW,246,0.0,5.0,60,0.00,,---,0.00,VWS V14.00,2013-08-27 17:35:00,
2013-08-27 12:40:00,90.6,75.3,29.71,South,171,6.0,6.0,61,0.00,,---,0.00,VWS V14.00,2013-08-27 17:40:00,
2013-08-27 12:45:00,90.6,73.8,29.70,East,84,2.0,8.0,58,0.00,,---,0.00,VWS V14.00,2013-08-27 17:45:00,
2013-08-27 12:50:00,90.2,74.4,29.70,SSE,157,6.0,7.0,60,0.00,,---,0.00,VWS V14.00,2013-08-27 17:50:00,
2013-08-27 12:55:00,90.2,74.9,29.70,WSW,240,2.0,9.0,61,0.00,,---,0.00,VWS V14.00,2013-08-27 17:55:00,
2013-08-27 13:00:00,90.3,74.5,29.70,SW,229,2.0,3.0,60,0.00,,---,0.00,VWS V14.00,2013-08-27 18:00:00,
2013-08-27 13:05:00,90.4,75.1,29.70,WSW,253,2.0,3.0,61,0.00,,---,0.00,VWS V14.00,2013-08-27 18:05:00,
2013-08-27 13:10:00,90.7,76.4,29.69,SSW,196,0.0,1.0,63,0.00,,---,0.00,VWS V14.00,2013-08-27 18:10:00,
2013-08-27 13:15:00,90.9,75.1,29.69,SSW,194,0.0,12.0,60,0.00,,---,0.00,VWS V14.00,2013-08-27 18:15:00,
2013-08-27 13:16:00,90.8,75.0,29.69,SE,137,0.0,9.0,60,0.00,,---,0.00,VWS V14.00,2013-08-27 18:16:00,
2013-08-27 13:20:00,90.8,75.0,29.68,SSE,167,3.0,9.0,60,0.00,,---,0.00,VWS V14.00,2013-08-27 18:20:00,
2013-08-27 13:21:00,90.9,75.6,29.68,South,186,0.0,4.0,61,0.00,,---,0.00,VWS V14.00,2013-08-27 18:21:00,
2013-08-27 13:25:00,91.2,76.4,29.68,SSW,194,3.0,4.0,62,0.00,,---,0.00,VWS V14.00,2013-08-27 18:25:00,
2013-08-27 13:26:00,91.3,76.0,29.68,SSW,209,5.0,5.0,61,0.00,,---,0.00,VWS V14.00,2013-08-27 18:26:00,
2013-08-27 13:30:00,91.5,75.7,29.68,SW,234,6.0,7.0,60,0.00,,---,0.00,VWS V14.00,2013-08-27 18:30:00,
2013-08-27 13:31:00,91.6,76.2,29.69,South,180,6.0,12.0,61,0.00,,---,0.00,VWS V14.00,2013-08-27 18:31:00,
2013-08-27 13:35:00,91.3,75.0,29.68,NNW,335,3.0,12.0,59,0.00,,---,0.00,VWS V14.00,2013-08-27 18:35:00,
2013-08-27 13:36:00,91.3,75.0,29.68,NW,326,0.0,7.0,59,0.00,,---,0.00,VWS V14.00,2013-08-27 18:36:00,
2013-08-27 13:40:00,91.4,74.6,29.68,SSE,157,6.0,11.0,58,0.00,,---,0.00,VWS V14.00,2013-08-27 18:40:00,
2013-08-27 13:41:00,91.3,74.5,29.68,South,185,1.0,7.0,58,0.00,,---,0.00,VWS V14.00,2013-08-27 18:41:00,
2013-08-27 13:45:00,91.4,75.1,29.68,SW,217,0.0,9.0,59,0.00,,---,0.00,VWS V14.00,2013-08-27 18:45:00,
2013-08-27 13:46:00,91.5,75.2,29.68,SSW,192,1.0,9.0,59,0.00,,---,0.00,VWS V14.00,2013-08-27 18:46:00,
2013-08-27 13:50:00,91.7,74.3,29.68,WSW,251,4.0,9.0,57,0.00,,---,0.00,VWS V14.00,2013-08-27 18:50:00,
2013-08-27 13:51:00,91.9,75.5,29.68,SSW,201,6.0,7.0,59,0.00,,---,0.00,VWS V14.00,2013-08-27 18:51:00,
2013-08-27 13:55:00,92.1,75.2,29.68,SW,223,5.0,7.0,58,0.00,,---,0.00,VWS V14.00,2013-08-27 18:55:00,
2013-08-27 13:56:00,92.2,76.3,29.68,WSW,256,5.0,7.0,60,0.00,,---,0.00,VWS V14.00,2013-08-27 18:56:00,
2013-08-27 14:00:00,92.3,74.9,29.67,SSW,194,0.0,9.0,57,0.00,,---,0.00,VWS V14.00,2013-08-27 19:00:00,
2013-08-27 14:01:00,92.3,74.9,29.67,SSE,148,1.0,6.0,57,0.00,,---,0.00,VWS V14.00,2013-08-27 19:01:00,
2013-08-27 14:05:00,92.3,75.4,29.67,WSW,238,6.0,7.0,58,0.00,,---,0.00,VWS V14.00,2013-08-27 19:05:00,
2013-08-27 14:06:00,92.4,75.5,29.67,WSW,237,3.0,6.0,58,0.00,,---,0.00,VWS V14.00,2013-08-27 19:06:00,
2013-08-27 14:10:00,92.4,75.0,29.67,SSE,155,4.0,9.0,57,0.00,,---,0.00,VWS V14.00,2013-08-27 19:10:00,
2013-08-27 14:11:00,92.4,75.5,29.67,South,174,9.0,13.0,58,0.00,,---,0.00,VWS V14.00,2013-08-27 19:11:00,
2013-08-27 14:15:00,92.2,74.2,29.67,SW,230,4.0,14.0,56,0.00,,---,0.00,VWS V14.00,2013-08-27 19:15:00,
2013-08-27 14:16:00,92.1,74.7,29.67,SSE,168,2.0,6.0,57,0.00,,---,0.00,VWS V14.00,2013-08-27 19:16:00,
2013-08-27 14:20:00,92.3,75.4,29.67,WSW,252,0.0,6.0,58,0.00,,---,0.00,VWS V14.00,2013-08-27 19:20:00,
2013-08-27 14:21:00,92.5,75.1,29.67,SW,215,0.0,9.0,57,0.00,,---,0.00,VWS V14.00,2013-08-27 19:21:00,
2013-08-27 14:25:00,92.6,75.2,29.67,SSW,198,1.0,9.0,57,0.00,,---,0.00,VWS V14.00,2013-08-27 19:25:00,
2013-08-27 14:26:00,92.6,75.2,29.67,SW,232,6.0,13.0,57,0.00,,---,0.00,VWS V14.00,2013-08-27 19:26:00,
2013-08-27 14:30:00,92.6,74.6,29.66,SSW,209,6.0,13.0,56,0.00,,---,0.00,VWS V14.00,2013-08-27 19:30:00,
2013-08-27 14:31:00,92.6,74.1,29.66,SSW,205,3.0,6.0,55,0.00,,---,0.00,VWS V14.00,2013-08-27 19:31:00,
2013-08-27 14:35:00,92.5,74.5,29.66,SW,219,5.0,11.0,56,0.00,,---,0.00,VWS V14.00,2013-08-27 19:35:00,
2013-08-27 14:36:00,92.3,73.8,29.66,SSE,165,3.0,13.0,55,0.00,,---,0.00,VWS V14.00,2013-08-27 19:36:00,
2013-08-27 14:40:00,92.3,74.3,29.66,WSW,244,5.0,13.0,56,0.00,,---,0.00,VWS V14.00,2013-08-27 19:40:00,
2013-08-27 14:41:00,92.4,75.5,29.66,SSE,160,1.0,8.0,58,0.00,,---,0.00,VWS V14.00,2013-08-27 19:41:00,
2013-08-27 14:45:00,92.5,74.5,29.66,SSE,150,0.0,9.0,56,0.00,,---,0.00,VWS V14.00,2013-08-27 19:45:00,
2013-08-27 14:47:00,92.6,75.2,29.66,WNW,287,1.0,10.0,57,0.00,,---,0.00,VWS V14.00,2013-08-27 19:47:00,
2013-08-27 14:50:00,92.9,75.4,29.66,SSW,205,0.0,10.0,57,0.00,,---,0.00,VWS V14.00,2013-08-27 19:50:00,
2013-08-27 14:52:00,93.1,75.1,29.66,SW,219,2.0,10.0,56,0.00,,---,0.00,VWS V14.00,2013-08-27 19:52:00,
2013-08-27 14:55:00,93.1,75.6,29.66,South,181,0.0,10.0,57,0.00,,---,0.00,VWS V14.00,2013-08-27 19:55:00,
2013-08-27 14:57:00,93.0,75.5,29.66,SSW,211,3.0,5.0,57,0.00,,---,0.00,VWS V14.00,2013-08-27 19:57:00,
2013-08-27 15:00:00,93.0,76.6,29.66,West,271,7.0,9.0,59,0.00,,---,0.00,VWS V14.00,2013-08-27 20:00:00,
2013-08-27 15:02:00,93.0,75.0,29.66,SSW,203,4.0,11.0,56,0.00,,---,0.00,VWS V14.00,2013-08-27 20:02:00,
2013-08-27 15:05:00,92.8,75.9,29.66,SSW,212,4.0,14.0,58,0.00,,---,0.00,VWS V14.00,2013-08-27 20:05:00,
2013-08-27 15:07:00,92.8,75.3,29.66,South,182,3.0,7.0,57,0.00,,---,0.00,VWS V14.00,2013-08-27 20:07:00,
2013-08-27 15:10:00,92.9,75.9,29.65,West,278,2.0,7.0,58,0.00,,---,0.00,VWS V14.00,2013-08-27 20:10:00,
2013-08-27 15:12:00,93.1,75.6,29.65,South,179,0.0,7.0,57,0.00,,---,0.00,VWS V14.00,2013-08-27 20:12:00,
2013-08-27 15:15:00,93.3,76.8,29.65,SW,233,0.0,7.0,59,0.00,,---,0.00,VWS V14.00,2013-08-27 20:15:00,
2013-08-27 15:17:00,93.4,75.4,29.65,SSE,148,2.0,11.0,56,0.00,,---,0.00,VWS V14.00,2013-08-27 20:17:00,
2013-08-27 15:20:00,93.1,75.6,29.66,SSW,204,4.0,12.0,57,0.00,,---,0.00,VWS V14.00,2013-08-27 20:20:00,
2013-08-27 15:22:00,92.9,75.9,29.65,South,190,10.0,10.0,58,0.00,,---,0.00,VWS V14.00,2013-08-27 20:22:00,
2013-08-27 15:25:00,92.8,75.3,29.65,South,169,1.0,10.0,57,0.00,,---,0.00,VWS V14.00,2013-08-27 20:25:00,
2013-08-27 15:27:00,92.9,75.9,29.65,SSW,197,0.0,3.0,58,0.00,,---,0.00,VWS V14.00,2013-08-27 20:27:00,
2013-08-27 15:30:00,93.1,75.1,29.65,SSE,164,5.0,9.0,56,0.00,,---,0.00,VWS V14.00,2013-08-27 20:30:00,
2013-08-27 15:32:00,93.1,75.1,29.65,WSW,257,11.0,11.0,56,0.00,,---,0.00,VWS V14.00,2013-08-27 20:32:00,
2013-08-27 15:35:00,93.1,75.6,29.66,NW,304,2.0,11.0,57,0.00,,---,0.00,VWS V14.00,2013-08-27 20:35:00,
2013-08-27 15:37:00,93.1,76.1,29.65,SW,226,7.0,9.0,58,0.00,,---,0.00,VWS V14.00,2013-08-27 20:37:00,
2013-08-27 15:40:00,93.2,76.2,29.65,SW,217,2.0,9.0,58,0.00,,---,0.00,VWS V14.00,2013-08-27 20:40:00,
2013-08-27 15:42:00,93.3,75.3,29.65,WSW,245,0.0,5.0,56,0.00,,---,0.00,VWS V14.00,2013-08-27 20:42:00,
2013-08-27 15:45:00,93.5,75.5,29.65,South,178,5.0,10.0,56,0.00,,---,0.00,VWS V14.00,2013-08-27 20:45:00,
2013-08-27 15:47:00,93.3,74.7,29.65,SSW,196,0.0,6.0,55,0.00,,---,0.00,VWS V14.00,2013-08-27 20:47:00,
2013-08-27 15:50:00,93.3,74.7,29.65,WNW,288,5.0,13.0,55,0.00,,---,0.00,VWS V14.00,2013-08-27 20:50:00,
2013-08-27 15:52:00,93.3,74.7,29.65,West,259,4.0,12.0,55,0.00,,---,0.00,VWS V14.00,2013-08-27 20:52:00,
2013-08-27 15:55:00,93.2,74.6,29.65,WSW,257,5.0,12.0,55,0.00,,---,0.00,VWS V14.00,2013-08-27 20:55:00,
2013-08-27 15:57:00,93.0,75.0,29.65,WNW,303,1.0,9.0,56,0.00,,---,0.00,VWS V14.00,2013-08-27 20:57:00,
2013-08-27 16:00:00,93.0,75.0,29.65,WNW,291,9.0,9.0,56,0.00,,---,0.00,VWS V14.00,2013-08-27 21:00:00,
2013-08-27 16:02:00,93.0,75.0,29.65,West,263,4.0,9.0,56,0.00,,---,0.00,VWS V14.00,2013-08-27 21:02:00,
2013-08-27 16:05:00,93.0,76.1,29.65,SW,236,0.0,9.0,58,0.00,,---,0.00,VWS V14.00,2013-08-27 21:05:00,
2013-08-27 16:07:00,93.0,76.1,29.65,SSW,198,0.0,5.0,58,0.00,,---,0.00,VWS V14.00,2013-08-27 21:07:00,
2013-08-27 16:10:00,93.1,75.6,29.65,West,275,2.0,7.0,57,0.00,,---,0.00,VWS V14.00,2013-08-27 21:10:00,
2013-08-27 16:12:00,93.3,76.3,29.65,WSW,253,0.0,7.0,58,0.00,,---,0.00,VWS V14.00,2013-08-27 21:12:00,
2013-08-27 16:15:00,93.4,76.4,29.65,WNW,286,5.0,8.0,58,0.00,,---,0.00,VWS V14.00,2013-08-27 21:15:00,
2013-08-27 16:17:00,93.3,75.8,29.65,South,189,0.0,6.0,57,0.00,,---,0.00,VWS V14.00,2013-08-27 21:17:00,
2013-08-27 16:20:00,93.1,75.6,29.65,South,178,0.0,6.0,57,0.00,,---,0.00,VWS V14.00,2013-08-27 21:20:00,
2013-08-27 16:22:00,93.2,75.7,29.65,SW,226,0.0,12.0,57,0.00,,---,0.00,VWS V14.00,2013-08-27 21:22:00,
2013-08-27 16:25:00,93.2,76.2,29.65,SSW,211,0.0,12.0,58,0.00,,---,0.00,VWS V14.00,2013-08-27 21:25:00,
2013-08-27 16:27:00,93.3,76.3,29.65,WSW,253,1.0,4.0,58,0.00,,---,0.00,VWS V14.00,2013-08-27 21:27:00,
2013-08-27 16:30:00,93.1,76.1,29.66,SSE,162,2.0,11.0,58,0.00,,---,0.00,VWS V14.00,2013-08-27 21:30:00,
2013-08-27 16:32:00,93.0,75.5,29.66,WSW,245,0.0,10.0,57,0.00,,---,0.00,VWS V14.00,2013-08-27 21:32:00,
2013-08-27 16:35:00,92.9,75.9,29.66,WSW,256,0.0,10.0,58,0.00,,---,0.00,VWS V14.00,2013-08-27 21:35:00,
2013-08-27 16:37:00,92.8,75.9,29.66,South,172,0.0,6.0,58,0.00,,---,0.00,VWS V14.00,2013-08-27 21:37:00,
2013-08-27 16:40:00,92.9,77.0,29.66,SE,144,2.0,6.0,60,0.00,,---,0.00,VWS V14.00,2013-08-27 21:40:00,
2013-08-27 16:42:00,92.7,75.2,29.66,SSE,154,6.0,10.0,57,0.00,,---,0.00,VWS V14.00,2013-08-27 21:42:00,
2013-08-27 16:45:00,92.6,75.7,29.66,West,272,0.0,10.0,58,0.00,,---,0.00,VWS V14.00,2013-08-27 21:45:00,
2013-08-27 16:47:00,92.6,75.7,29.66,West,273,0.0,4.0,58,0.00,,---,0.00,VWS V14.00,2013-08-27 21:47:00,
2013-08-27 16:50:00,92.7,76.3,29.66,WSW,248,0.0,5.0,59,0.00,,---,0.00,VWS V14.00,2013-08-27 21:50:00,
2013-08-27 16:52:00,92.8,76.4,29.66,SSE,158,0.0,7.0,59,0.00,,---,0.00,VWS V14.00,2013-08-27 21:52:00,
2013-08-27 16:55:00,92.8,75.9,29.66,SSW,201,1.0,7.0,58,0.00,,---,0.00,VWS V14.00,2013-08-27 21:55:00,
2013-08-27 16:57:00,92.8,76.4,29.66,SW,233,0.0,4.0,59,0.00,,---,0.00,VWS V14.00,2013-08-27 21:57:00,
2013-08-27 17:00:00,92.6,76.2,29.66,South,184,1.0,9.0,59,0.00,,---,0.00,VWS V14.00,2013-08-27 22:00:00,
2013-08-27 17:02:00,92.3,76.4,29.66,SSW,200,0.0,3.0,60,0.00,,---,0.00,VWS V14.00,2013-08-27 22:02:00,
2013-08-27 17:05:00,92.3,75.9,29.66,SSW,212,1.0,3.0,59,0.00,,---,0.00,VWS V14.00,2013-08-27 22:05:00,
2013-08-27 17:07:00,92.3,76.4,29.66,West,277,2.0,6.0,60,0.00,,---,0.00,VWS V14.00,2013-08-27 22:07:00,
2013-08-27 17:10:00,92.3,75.9,29.66,West,265,0.0,6.0,59,0.00,,---,0.00,VWS V14.00,2013-08-27 22:10:00,
2013-08-27 17:12:00,92.3,76.9,29.66,South,180,3.0,6.0,61,0.00,,---,0.00,VWS V14.00,2013-08-27 22:12:00,
2013-08-27 17:15:00,92.1,75.7,29.66,SW,226,1.0,6.0,59,0.00,,---,0.00,VWS V14.00,2013-08-27 22:15:00,
2013-08-27 17:17:00,91.9,76.5,29.66,West,271,6.0,6.0,61,0.00,,---,0.00,VWS V14.00,2013-08-27 22:17:00,
2013-08-27 17:20:00,92.0,76.1,29.66,WNW,296,1.0,9.0,60,0.00,,---,0.00,VWS V14.00,2013-08-27 22:20:00,
2013-08-27 17:22:00,91.9,76.0,29.66,South,190,3.0,5.0,60,0.00,,---,0.00,VWS V14.00,2013-08-27 22:22:00,
2013-08-27 17:25:00,91.8,75.9,29.66,SSW,205,0.0,5.0,60,0.00,,---,0.00,VWS V14.00,2013-08-27 22:25:00,
2013-08-27 17:27:00,91.7,76.3,29.66,West,259,0.0,7.0,61,0.00,,---,0.00,VWS V14.00,2013-08-27 22:27:00,
2013-08-27 17:30:00,91.7,76.3,29.66,West,264,0.0,7.0,61,0.00,,---,0.00,VWS V14.00,2013-08-27 22:30:00,
2013-08-27 17:32:00,91.7,76.8,29.66,WSW,252,0.0,1.0,62,0.00,,---,0.00,VWS V14.00,2013-08-27 22:32:00,
2013-08-27 17:35:00,91.7,76.8,29.66,West,277,3.0,3.0,62,0.00,,---,0.00,VWS V14.00,2013-08-27 22:35:00,
2013-08-27 17:37:00,91.7,76.3,29.66,SW,225,1.0,6.0,61,0.00,,---,0.00,VWS V14.00,2013-08-27 22:37:00,
2013-08-27 17:40:00,91.7,76.3,29.66,WSW,248,7.0,7.0,61,0.00,,---,0.00,VWS V14.00,2013-08-27 22:40:00,
2013-08-27 17:42:00,91.6,76.2,29.66,West,275,0.0,8.0,61,0.00,,---,0.00,VWS V14.00,2013-08-27 22:42:00,
2013-08-27 17:45:00,91.5,76.2,29.66,WSW,238,0.0,8.0,61,0.00,,---,0.00,VWS V14.00,2013-08-27 22:45:00,
2013-08-27 17:47:00,91.5,76.2,29.66,WSW,238,0.0,1.0,61,0.00,,---,0.00,VWS V14.00,2013-08-27 22:47:00,
2013-08-27 17:50:00,91.5,76.2,29.66,WSW,238,0.0,1.0,61,0.00,,---,0.00,VWS V14.00,2013-08-27 22:50:00,
2013-08-27 17:52:00,91.6,76.2,29.66,WSW,238,0.0,1.0,61,0.00,,---,0.00,VWS V14.00,2013-08-27 22:52:00,
2013-08-27 17:55:00,91.5,76.2,29.66,WSW,241,0.0,1.0,61,0.00,,---,0.00,VWS V14.00,2013-08-27 22:55:00,
2013-08-27 17:57:00,91.4,76.1,29.66,West,260,3.0,6.0,61,0.00,,---,0.00,VWS V14.00,2013-08-27 22:57:00,
2013-08-27 18:00:00,91.3,76.0,29.66,West,261,0.0,6.0,61,0.00,,---,0.00,VWS V14.00,2013-08-27 23:00:00,
2013-08-27 18:02:00,90.9,75.6,29.67,West,260,0.0,7.0,61,0.00,,---,0.00,VWS V14.00,2013-08-27 23:02:00,
2013-08-27 18:05:00,90.7,75.9,29.67,West,260,0.0,7.0,62,0.00,,---,0.00,VWS V14.00,2013-08-27 23:05:00,
2013-08-27 18:07:00,90.4,76.1,29.67,West,260,1.0,1.0,63,0.00,,---,0.00,VWS V14.00,2013-08-27 23:07:00,
2013-08-27 18:10:00,90.2,75.9,29.67,WSW,252,1.0,5.0,63,0.00,,---,0.00,VWS V14.00,2013-08-27 23:10:00,
2013-08-27 18:12:00,90.0,75.7,29.67,West,260,4.0,4.0,63,0.00,,---,0.00,VWS V14.00,2013-08-27 23:12:00,
2013-08-27 18:15:00,89.9,75.6,29.67,West,263,2.0,6.0,63,0.00,,---,0.00,VWS V14.00,2013-08-27 23:15:00,
2013-08-27 18:17:00,89.7,75.4,29.67,WNW,298,1.0,9.0,63,0.00,,---,0.00,VWS V14.00,2013-08-27 23:17:00,
2013-08-27 18:20:00,89.7,75.9,29.67,WNW,298,0.0,9.0,64,0.00,,---,0.00,VWS V14.00,2013-08-27 23:20:00,
2013-08-27 18:22:00,89.5,75.7,29.67,NW,310,0.0,6.0,64,0.00,,---,0.00,VWS V14.00,2013-08-27 23:22:00,
2013-08-27 18:25:00,89.3,76.0,29.67,SW,219,0.0,6.0,65,0.00,,---,0.00,VWS V14.00,2013-08-27 23:25:00,
2013-08-27 18:27:00,89.1,75.8,29.67,West,273,0.0,4.0,65,0.00,,---,0.00,VWS V14.00,2013-08-27 23:27:00,
2013-08-27 18:30:00,89.0,75.7,29.67,West,261,0.0,4.0,65,0.00,,---,0.00,VWS V14.00,2013-08-27 23:30:00,
2013-08-27 18:33:00,88.8,75.5,29.68,WSW,248,0.0,5.0,65,0.00,,---,0.00,VWS V14.00,2013-08-27 23:33:00,
2013-08-27 18:35:00,88.7,75.4,29.68,WSW,248,0.0,5.0,65,0.00,,---,0.00,VWS V14.00,2013-08-27 23:35:00,
2013-08-27 18:38:00,88.6,75.3,29.68,WSW,248,0.0,3.0,65,0.00,,---,0.00,VWS V14.00,2013-08-27 23:38:00,
2013-08-27 18:40:00,88.6,75.3,29.68,WSW,248,0.0,3.0,65,0.00,,---,0.00,VWS V14.00,2013-08-27 23:40:00,
2013-08-27 18:43:00,88.4,75.6,29.68,WSW,248,0.0,1.0,66,0.00,,---,0.00,VWS V14.00,2013-08-27 23:43:00,
2013-08-27 18:45:00,88.3,75.5,29.68,WSW,248,0.0,1.0,66,0.00,,---,0.00,VWS V14.00,2013-08-27 23:45:00,
2013-08-27 18:48:00,88.2,75.4,29.68,WSW,248,0.0,1.0,66,0.00,,---,0.00,VWS V14.00,2013-08-27 23:48:00,
2013-08-27 18:50:00,88.1,75.8,29.68,WSW,248,0.0,1.0,67,0.00,,---,0.00,VWS V14.00,2013-08-27 23:50:00,
2013-08-27 18:53:00,88.0,75.7,29.68,WSW,248,0.0,1.0,67,0.00,,---,0.00,VWS V14.00,2013-08-27 23:53:00,
2013-08-27 18:55:00,87.9,75.6,29.68,WSW,248,0.0,1.0,67,0.00,,---,0.00,VWS V14.00,2013-08-27 23:55:00,
2013-08-27 18:58:00,87.8,75.5,29.68,WSW,248,0.0,2.0,67,0.00,,---,0.00,VWS V14.00,2013-08-27 23:58:00,
2013-08-27 19:00:00,87.8,75.5,29.68,WSW,248,0.0,2.0,67,0.00,,---,0.00,VWS V14.00,2013-08-28 00:00:00,
2013-08-27 19:03:00,87.6,75.7,29.68,WSW,248,0.0,0.0,68,0.00,,---,0.00,VWS V14.00,2013-08-28 00:03:00,
2013-08-27 19:05:00,87.6,75.7,29.67,WSW,248,0.0,0.0,68,0.00,,---,0.00,VWS V14.00,2013-08-28 00:05:00,
2013-08-27 19:08:00,87.4,75.6,29.68,WSW,248,0.0,2.0,68,0.00,,---,0.00,VWS V14.00,2013-08-28 00:08:00,
2013-08-27 19:10:00,87.4,75.6,29.68,WSW,248,0.0,2.0,68,0.00,,---,0.00,VWS V14.00,2013-08-28 00:10:00,
2013-08-27 19:13:00,87.2,75.4,29.68,WSW,248,0.0,1.0,68,0.00,,---,0.00,VWS V14.00,2013-08-28 00:13:00,
2013-08-27 19:15:00,87.1,75.7,29.68,WSW,248,0.0,1.0,69,0.00,,---,0.00,VWS V14.00,2013-08-28 00:15:00,
2013-08-27 19:18:00,86.9,75.5,29.68,WSW,248,0.0,1.0,69,0.00,,---,0.00,VWS V14.00,2013-08-28 00:18:00,
2013-08-27 19:20:00,86.9,75.5,29.68,WSW,248,0.0,1.0,69,0.00,,---,0.00,VWS V14.00,2013-08-28 00:20:00,
2013-08-27 19:23:00,86.7,75.3,29.68,WSW,248,0.0,1.0,69,0.00,,---,0.00,VWS V14.00,2013-08-28 00:23:00,
2013-08-27 19:25:00,86.7,75.8,29.68,WSW,248,0.0,1.0,70,0.00,,---,0.00,VWS V14.00,2013-08-28 00:25:00,
2013-08-27 19:28:00,86.5,75.6,29.68,WSW,248,0.0,0.0,70,0.00,,---,0.00,VWS V14.00,2013-08-28 00:28:00,
2013-08-27 19:30:00,86.5,75.6,29.68,WSW,248,0.0,0.0,70,0.00,,---,0.00,VWS V14.00,2013-08-28 00:30:00,
2013-08-27 19:33:00,86.3,75.4,29.68,WSW,248,0.0,0.0,70,0.00,,---,0.00,VWS V14.00,2013-08-28 00:33:00,
2013-08-27 19:35:00,86.3,75.4,29.68,WSW,248,0.0,0.0,70,0.00,,---,0.00,VWS V14.00,2013-08-28 00:35:00,
2013-08-27 19:38:00,86.1,75.2,29.68,WSW,248,0.0,0.0,70,0.00,,---,0.00,VWS V14.00,2013-08-28 00:38:00,
2013-08-27 19:40:00,86.0,75.5,29.68,WSW,248,0.0,0.0,71,0.00,,---,0.00,VWS V14.00,2013-08-28 00:40:00,
2013-08-27 19:43:00,85.9,75.4,29.68,WSW,248,0.0,1.0,71,0.00,,---,0.00,VWS V14.00,2013-08-28 00:43:00,
2013-08-27 19:45:00,85.9,75.4,29.68,WSW,248,0.0,1.0,71,0.00,,---,0.00,VWS V14.00,2013-08-28 00:45:00,
2013-08-27 19:48:00,85.7,75.2,29.68,WSW,248,0.0,0.0,71,0.00,,---,0.00,VWS V14.00,2013-08-28 00:48:00,
2013-08-27 19:50:00,85.6,75.5,29.68,WSW,248,0.0,0.0,72,0.00,,---,0.00,VWS V14.00,2013-08-28 00:50:00,
2013-08-27 19:53:00,85.4,75.8,29.69,WSW,248,0.0,0.0,73,0.00,,---,0.00,VWS V14.00,2013-08-28 00:53:00,
2013-08-27 19:55:00,85.3,75.7,29.68,WSW,248,0.0,0.0,73,0.00,,---,0.00,VWS V14.00,2013-08-28 00:55:00,
2013-08-27 19:58:00,84.9,75.3,29.69,WSW,248,0.0,0.0,73,0.00,,---,0.00,VWS V14.00,2013-08-28 00:58:00,
2013-08-27 20:00:00,84.8,75.6,29.69,WSW,248,0.0,0.0,74,0.00,,---,0.00,VWS V14.00,2013-08-28 01:00:00,
2013-08-27 20:03:00,84.3,75.1,29.69,WSW,248,0.0,0.0,74,0.00,,---,0.00,VWS V14.00,2013-08-28 01:03:00,
2013-08-27 20:05:00,84.3,75.5,29.69,WSW,248,0.0,0.0,75,0.00,,---,0.00,VWS V14.00,2013-08-28 01:05:00,
2013-08-27 20:08:00,83.9,75.1,29.69,WSW,248,0.0,0.0,75,0.00,,---,0.00,VWS V14.00,2013-08-28 01:08:00,
2013-08-27 20:10:00,83.8,75.0,29.69,WSW,248,0.0,0.0,75,0.00,,---,0.00,VWS V14.00,2013-08-28 01:10:00,
2013-08-27 20:13:00,83.6,75.2,29.69,WSW,248,0.0,0.0,76,0.00,,---,0.00,VWS V14.00,2013-08-28 01:13:00,
2013-08-27 20:15:00,83.5,75.1,29.69,WSW,248,0.0,0.0,76,0.00,,---,0.00,VWS V14.00,2013-08-28 01:15:00,
2013-08-27 20:18:00,83.3,75.3,29.69,WSW,248,0.0,0.0,77,0.00,,---,0.00,VWS V14.00,2013-08-28 01:18:00,
2013-08-27 20:20:00,83.3,74.9,29.69,WSW,248,0.0,0.0,76,0.00,,---,0.00,VWS V14.00,2013-08-28 01:20:00,
2013-08-27 20:23:00,83.0,75.1,29.69,WSW,248,0.0,0.0,77,0.00,,---,0.00,VWS V14.00,2013-08-28 01:23:00,
2013-08-27 20:25:00,83.0,75.1,29.69,WSW,248,0.0,0.0,77,0.00,,---,0.00,VWS V14.00,2013-08-28 01:25:00,
2013-08-27 20:28:00,82.7,75.2,29.69,WSW,248,0.0,0.0,78,0.00,,---,0.00,VWS V14.00,2013-08-28 01:28:00,
2013-08-27 20:30:00,82.6,75.1,29.69,WSW,248,0.0,0.0,78,0.00,,---,0.00,VWS V14.00,2013-08-28 01:30:00,
2013-08-27 20:33:00,82.4,75.2,29.69,WSW,248,0.0,0.0,79,0.00,,---,0.00,VWS V14.00,2013-08-28 01:33:00,
2013-08-27 20:35:00,82.3,75.1,29.70,WSW,248,0.0,0.0,79,0.00,,---,0.00,VWS V14.00,2013-08-28 01:35:00,
2013-08-27 20:38:00,82.1,74.9,29.70,WSW,248,0.0,0.0,79,0.00,,---,0.00,VWS V14.00,2013-08-28 01:38:00,
2013-08-27 20:40:00,82.0,75.2,29.70,WSW,248,0.0,0.0,80,0.00,,---,0.00,VWS V14.00,2013-08-28 01:40:00,
2013-08-27 20:43:00,81.7,74.9,29.70,WSW,248,0.0,1.0,80,0.00,,---,0.00,VWS V14.00,2013-08-28 01:43:00,
2013-08-27 20:45:00,81.7,74.9,29.70,WSW,248,0.0,1.0,80,0.00,,---,0.00,VWS V14.00,2013-08-28 01:45:00,
2013-08-27 20:48:00,81.4,75.0,29.70,WSW,248,0.0,0.0,81,0.00,,---,0.00,VWS V14.00,2013-08-28 01:48:00,
2013-08-27 20:50:00,81.4,75.0,29.70,WSW,248,0.0,0.0,81,0.00,,---,0.00,VWS V14.00,2013-08-28 01:50:00,
2013-08-27 20:53:00,81.2,75.2,29.70,WSW,248,0.0,1.0,82,0.00,,---,0.00,VWS V14.00,2013-08-28 01:53:00,
2013-08-27 20:55:00,81.1,75.1,29.70,WSW,248,0.0,1.0,82,0.00,,---,0.00,VWS V14.00,2013-08-28 01:55:00,
2013-08-27 20:58:00,80.9,74.9,29.70,WSW,248,0.0,0.0,82,0.00,,---,0.00,VWS V14.00,2013-08-28 01:58:00,
2013-08-27 21:00:00,80.9,74.9,29.70,WSW,248,0.0,0.0,82,0.00,,---,0.00,VWS V14.00,2013-08-28 02:00:00,
2013-08-27 21:03:00,80.7,75.1,29.70,WSW,248,0.0,0.0,83,0.00,,---,0.00,VWS V14.00,2013-08-28 02:03:00,
2013-08-27 21:05:00,80.7,75.1,29.70,WSW,248,0.0,0.0,83,0.00,,---,0.00,VWS V14.00,2013-08-28 02:05:00,
2013-08-27 21:08:00,80.6,75.0,29.70,WSW,248,0.0,0.0,83,0.00,,---,0.00,VWS V14.00,2013-08-28 02:08:00,
2013-08-27 21:10:00,80.5,74.9,29.70,WSW,248,0.0,0.0,83,0.00,,---,0.00,VWS V14.00,2013-08-28 02:10:00,
2013-08-27 21:13:00,80.4,74.8,29.70,WSW,248,0.0,0.0,83,0.00,,---,0.00,VWS V14.00,2013-08-28 02:13:00,
2013-08-27 21:15:00,80.4,74.8,29.70,WSW,248,0.0,0.0,83,0.00,,---,0.00,VWS V14.00,2013-08-28 02:15:00,
2013-08-27 21:18:00,80.3,74.7,29.70,WSW,248,0.0,0.0,83,0.00,,---,0.00,VWS V14.00,2013-08-28 02:18:00,
2013-08-27 21:20:00,80.2,74.6,29.70,WSW,248,0.0,0.0,83,0.00,,---,0.00,VWS V14.00,2013-08-28 02:20:00,
2013-08-27 21:23:00,80.1,74.8,29.70,WSW,248,0.0,0.0,84,0.00,,---,0.00,VWS V14.00,2013-08-28 02:23:00,
2013-08-27 21:25:00,80.1,74.8,29.70,WSW,248,0.0,0.0,84,0.00,,---,0.00,VWS V14.00,2013-08-28 02:25:00,
2013-08-27 21:28:00,79.9,74.6,29.70,WSW,248,0.0,0.0,84,0.00,,---,0.00,VWS V14.00,2013-08-28 02:28:00,
2013-08-27 21:30:00,79.8,74.5,29.70,WSW,248,0.0,0.0,84,0.00,,---,0.00,VWS V14.00,2013-08-28 02:30:00,
2013-08-27 21:33:00,79.5,74.6,29.70,WSW,248,0.0,0.0,85,0.00,,---,0.00,VWS V14.00,2013-08-28 02:33:00,
2013-08-27 21:35:00,79.4,74.5,29.70,WSW,248,0.0,0.0,85,0.00,,---,0.00,VWS V14.00,2013-08-28 02:35:00,
2013-08-27 21:38:00,79.3,74.4,29.70,WSW,248,0.0,0.0,85,0.00,,---,0.00,VWS V14.00,2013-08-28 02:38:00,
2013-08-27 21:40:00,79.2,74.3,29.70,WSW,248,0.0,0.0,85,0.00,,---,0.00,VWS V14.00,2013-08-28 02:40:00,
2013-08-27 21:43:00,78.9,74.4,29.71,WSW,248,0.0,0.0,86,0.00,,---,0.00,VWS V14.00,2013-08-28 02:43:00,
2013-08-27 21:45:00,78.8,74.3,29.70,WSW,248,0.0,0.0,86,0.00,,---,0.00,VWS V14.00,2013-08-28 02:45:00,
2013-08-27 21:48:00,78.7,74.2,29.71,WSW,248,0.0,0.0,86,0.00,,---,0.00,VWS V14.00,2013-08-28 02:48:00,
2013-08-27 21:50:00,78.7,74.2,29.71,WSW,248,0.0,0.0,86,0.00,,---,0.00,VWS V14.00,2013-08-28 02:50:00,
2013-08-27 21:53:00,78.6,74.4,29.71,WSW,248,0.0,0.0,87,0.00,,---,0.00,VWS V14.00,2013-08-28 02:53:00,
2013-08-27 21:55:00,78.5,74.3,29.71,WSW,248,0.0,0.0,87,0.00,,---,0.00,VWS V14.00,2013-08-28 02:55:00,
2013-08-27 21:58:00,78.5,74.3,29.71,WSW,248,0.0,0.0,87,0.00,,---,0.00,VWS V14.00,2013-08-28 02:58:00,
2013-08-27 22:00:00,78.4,74.2,29.71,WSW,248,0.0,0.0,87,0.00,,---,0.00,VWS V14.00,2013-08-28 03:00:00,
2013-08-27 22:03:00,78.3,74.1,29.71,WSW,248,0.0,0.0,87,0.00,,---,0.00,VWS V14.00,2013-08-28 03:03:00,
2013-08-27 22:05:00,78.3,74.1,29.71,WSW,248,0.0,0.0,87,0.00,,---,0.00,VWS V14.00,2013-08-28 03:05:00,
2013-08-27 22:08:00,78.2,74.4,29.72,WSW,248,0.0,0.0,88,0.00,,---,0.00,VWS V14.00,2013-08-28 03:08:00,
2013-08-27 22:10:00,78.2,74.4,29.72,WSW,248,0.0,0.0,88,0.00,,---,0.00,VWS V14.00,2013-08-28 03:10:00,
2013-08-27 22:13:00,78.2,74.4,29.72,WSW,248,0.0,0.0,88,0.00,,---,0.00,VWS V14.00,2013-08-28 03:13:00,
2013-08-27 22:15:00,78.1,74.3,29.72,WSW,248,0.0,0.0,88,0.00,,---,0.00,VWS V14.00,2013-08-28 03:15:00,
2013-08-27 22:18:00,77.9,74.1,29.72,WSW,248,0.0,0.0,88,0.00,,---,0.00,VWS V14.00,2013-08-28 03:18:00,
2013-08-27 22:20:00,77.9,74.1,29.72,WSW,248,0.0,0.0,88,0.00,,---,0.00,VWS V14.00,2013-08-28 03:20:00,
2013-08-27 22:23:00,77.7,73.9,29.72,WSW,248,0.0,0.0,88,0.00,,---,0.00,VWS V14.00,2013-08-28 03:23:00,
2013-08-27 22:25:00,77.7,73.9,29.72,WSW,248,0.0,0.0,88,0.00,,---,0.00,VWS V14.00,2013-08-28 03:25:00,
2013-08-27 22:28:00,77.6,74.1,29.72,WSW,248,0.0,0.0,89,0.00,,---,0.00,VWS V14.00,2013-08-28 03:28:00,
2013-08-27 22:30:00,77.5,74.0,29.72,WSW,248,0.0,0.0,89,0.00,,---,0.00,VWS V14.00,2013-08-28 03:30:00,
2013-08-27 22:33:00,77.5,74.0,29.71,WSW,248,0.0,0.0,89,0.00,,---,0.00,VWS V14.00,2013-08-28 03:33:00,
2013-08-27 22:35:00,77.5,74.0,29.71,WSW,248,0.0,0.0,89,0.00,,---,0.00,VWS V14.00,2013-08-28 03:35:00,
2013-08-27 22:38:00,77.4,74.2,29.71,WSW,248,0.0,0.0,90,0.00,,---,0.00,VWS V14.00,2013-08-28 03:38:00,
2013-08-27 22:40:00,77.4,74.2,29.71,WSW,248,0.0,0.0,90,0.00,,---,0.00,VWS V14.00,2013-08-28 03:40:00,
2013-08-27 22:43:00,77.4,74.2,29.71,WSW,248,0.0,0.0,90,0.00,,---,0.00,VWS V14.00,2013-08-28 03:43:00,
2013-08-27 22:45:00,77.4,74.2,29.71,WSW,248,0.0,0.0,90,0.00,,---,0.00,VWS V14.00,2013-08-28 03:45:00,
2013-08-27 22:48:00,77.4,74.2,29.71,WSW,248,0.0,0.0,90,0.00,,---,0.00,VWS V14.00,2013-08-28 03:48:00,
2013-08-27 22:50:00,77.4,74.2,29.71,WSW,248,0.0,0.0,90,0.00,,---,0.00,VWS V14.00,2013-08-28 03:50:00,
2013-08-27 22:53:00,77.3,74.1,29.70,WSW,248,0.0,0.0,90,0.00,,---,0.00,VWS V14.00,2013-08-28 03:53:00,
2013-08-27 22:55:00,77.3,74.1,29.70,WSW,248,0.0,0.0,90,0.00,,---,0.00,VWS V14.00,2013-08-28 03:55:00,
2013-08-27 22:58:00,77.2,74.0,29.70,WSW,248,0.0,0.0,90,0.00,,---,0.00,VWS V14.00,2013-08-28 03:58:00,
2013-08-27 23:00:00,77.2,74.0,29.70,WSW,248,0.0,0.0,90,0.00,,---,0.00,VWS V14.00,2013-08-28 04:00:00,
2013-08-27 23:01:00,77.1,73.9,29.70,WSW,248,0.0,0.0,90,0.00,,---,0.00,VWS V14.00,2013-08-28 04:01:00,
2013-08-27 23:02:00,77.1,73.9,29.70,WSW,248,0.0,0.0,90,0.00,,---,0.00,VWS V14.00,2013-08-28 04:02:00,
2013-08-27 23:05:00,77.1,73.9,29.70,WSW,248,0.0,0.0,90,0.00,,---,0.00,VWS V14.00,2013-08-28 04:05:00,
2013-08-27 23:07:00,77.1,73.9,29.69,WSW,248,0.0,0.0,90,0.00,,---,0.00,VWS V14.00,2013-08-28 04:07:00,
2013-08-27 23:10:00,77.1,73.9,29.69,WSW,248,0.0,0.0,90,0.00,,---,0.00,VWS V14.00,2013-08-28 04:10:00,
2013-08-27 23:12:00,77.0,73.8,29.69,WSW,248,0.0,0.0,90,0.00,,---,0.00,VWS V14.00,2013-08-28 04:12:00,
2013-08-27 23:15:00,77.0,74.2,29.69,WSW,248,0.0,0.0,91,0.00,,---,0.00,VWS V14.00,2013-08-28 04:15:00,
2013-08-27 23:17:00,77.0,74.2,29.69,WSW,248,0.0,0.0,91,0.00,,---,0.00,VWS V14.00,2013-08-28 04:17:00,
2013-08-27 23:20:00,76.9,74.1,29.70,WSW,248,0.0,0.0,91,0.00,,---,0.00,VWS V14.00,2013-08-28 04:20:00,
2013-08-27 23:22:00,77.0,74.2,29.70,WSW,248,0.0,0.0,91,0.00,,---,0.00,VWS V14.00,2013-08-28 04:22:00,
2013-08-27 23:25:00,77.0,74.2,29.70,WSW,248,0.0,0.0,91,0.00,,---,0.00,VWS V14.00,2013-08-28 04:25:00,
2013-08-27 23:27:00,77.0,74.2,29.70,WSW,248,0.0,0.0,91,0.00,,---,0.00,VWS V14.00,2013-08-28 04:27:00,
2013-08-27 23:30:00,77.0,74.2,29.70,WSW,248,0.0,0.0,91,0.00,,---,0.00,VWS V14.00,2013-08-28 04:30:00,
2013-08-27 23:32:00,76.9,74.1,29.70,WSW,248,0.0,0.0,91,0.00,,---,0.00,VWS V14.00,2013-08-28 04:32:00,
2013-08-27 23:35:00,76.9,74.1,29.70,WSW,248,0.0,0.0,91,0.00,,---,0.00,VWS V14.00,2013-08-28 04:35:00,
2013-08-27 23:37:00,76.9,74.1,29.70,WSW,248,0.0,0.0,91,0.00,,---,0.00,VWS V14.00,2013-08-28 04:37:00,
2013-08-27 23:40:00,76.8,74.0,29.70,WSW,248,0.0,0.0,91,0.00,,---,0.00,VWS V14.00,2013-08-28 04:40:00,
2013-08-27 23:42:00,76.8,74.0,29.70,WSW,248,0.0,0.0,91,0.00,,---,0.00,VWS V14.00,2013-08-28 04:42:00,
2013-08-27 23:45:00,76.7,73.9,29.70,WSW,248,0.0,0.0,91,0.00,,---,0.00,VWS V14.00,2013-08-28 04:45:00,
2013-08-27 23:47:00,76.7,73.9,29.70,WSW,248,0.0,0.0,91,0.00,,---,0.00,VWS V14.00,2013-08-28 04:47:00,
2013-08-27 23:49:00,76.6,73.8,29.70,WSW,248,0.0,0.0,91,0.00,,---,0.00,VWS V14.00,2013-08-28 04:49:00,
2013-08-27 23:50:00,76.6,73.8,29.70,WSW,248,0.0,0.0,91,0.00,,---,0.00,VWS V14.00,2013-08-28 04:50:00,
2013-08-27 23:54:00,76.5,73.7,29.70,WSW,248,0.0,0.0,91,0.00,,---,0.00,VWS V14.00,2013-08-28 04:54:00,
2013-08-27 23:55:00,76.5,73.7,29.70,WSW,248,0.0,0.0,91,0.00,,---,0.00,VWS V14.00,2013-08-28 04:55:00,
2013-08-27 23:59:00,76.3,73.5,29.70,WSW,248,0.0,0.0,91,0.00,,---,0.00,VWS V14.00,2013-08-28 04:59:00,